TimePST,TemperatureF,Dew PointF,Humidity,Sea Level PressureIn,VisibilityMPH,Wind Direction,Wind SpeedMPH,Gust SpeedMPH,PrecipitationIn,Events,Conditions,WindDirDegrees,DateUTC
12:51 AM,48.9,45.0,86,30.01,10.0,Calm,Calm,-,N/A,,Partly Cloudy,0,2012-12-30 08:51:00
1:51 AM,48.0,45.0,89,30.01,9.0,Calm,Calm,-,N/A,,Clear,0,2012-12-30 09:51:00
2:51 AM,46.9,44.1,90,30.01,8.0,NNE,3.5,-,N/A,,Partly Cloudy,30,2012-12-30 10:51:00
3:51 AM,48.0,46.0,93,30.00,10.0,Calm,Calm,-,N/A,,Overcast,0,2012-12-30 11:51:00
4:51 AM,48.9,45.0,86,29.99,10.0,Calm,Calm,-,0.01,,Mostly Cloudy,0,2012-12-30 12:51:00
5:51 AM,48.0,44.1,86,30.00,10.0,NNE,5.8,-,0.00,Rain,Light Rain,30,2012-12-30 13:51:00
6:05 AM,48.2,44.6,87,30.01,9.0,North,8.1,-,0.00,Rain,Light Rain,10,2012-12-30 14:05:00
6:19 AM,48.2,44.6,87,30.00,4.0,ESE,6.9,-,0.04,Rain,Rain,110,2012-12-30 14:19:00
6:51 AM,48.9,45.0,86,30.00,10.0,ENE,4.6,-,0.05,,Mostly Cloudy,60,2012-12-30 14:51:00
7:51 AM,48.9,45.0,86,30.01,10.0,Calm,Calm,-,N/A,,Scattered Clouds,0,2012-12-30 15:51:00
8:51 AM,52.0,46.0,80,30.03,10.0,Calm,Calm,-,N/A,,Scattered Clouds,0,2012-12-30 16:51:00
9:51 AM,52.0,46.0,80,30.04,10.0,SSW,3.5,-,N/A,,Mostly Cloudy,200,2012-12-30 17:51:00
10:51 AM,54.0,43.0,66,30.02,10.0,Calm,Calm,-,N/A,,Mostly Cloudy,0,2012-12-30 18:51:00
11:51 AM,54.0,42.1,64,29.99,10.0,WNW,5.8,-,N/A,,Mostly Cloudy,290,2012-12-30 19:51:00
12:51 PM,54.0,44.1,69,29.96,10.0,Calm,Calm,-,0.00,,Mostly Cloudy,0,2012-12-30 20:51:00
1:43 PM,57.2,42.8,59,29.94,10.0,West,8.1,-,N/A,,Mostly Cloudy,280,2012-12-30 21:43:00
1:51 PM,55.9,42.1,60,29.94,10.0,NW,3.5,-,N/A,,Mostly Cloudy,320,2012-12-30 21:51:00
2:51 PM,55.9,42.1,60,29.94,10.0,West,6.9,-,N/A,,Mostly Cloudy,280,2012-12-30 22:51:00
3:00 PM,55.4,42.8,63,29.94,10.0,West,6.9,-,N/A,,Scattered Clouds,280,2012-12-30 23:00:00
3:37 PM,55.4,42.8,63,29.94,10.0,Variable,5.8,-,N/A,,Mostly Cloudy,0,2012-12-30 23:37:00
3:51 PM,55.0,43.0,64,29.94,10.0,Variable,5.8,-,N/A,,Mostly Cloudy,0,2012-12-30 23:51:00
4:51 PM,52.0,37.0,57,29.95,7.0,WNW,5.8,16.1,0.02,Rain,Light Rain,290,2012-12-31 00:51:00
5:51 PM,50.0,42.1,74,29.96,10.0,Calm,Calm,-,0.00,,Mostly Cloudy,0,2012-12-31 01:51:00
6:51 PM,50.0,39.0,66,30.00,10.0,North,9.2,16.1,0.00,Rain,Light Rain,10,2012-12-31 02:51:00
7:08 PM,51.8,39.2,62,30.00,10.0,NE,6.9,-,0.00,Rain-Thunderstorm,Light Thunderstorms and Rain,50,2012-12-31 03:08:00
7:31 PM,50.0,39.2,66,30.01,10.0,Calm,Calm,-,0.00,,Mostly Cloudy,0,2012-12-31 03:31:00
7:51 PM,50.0,41.0,71,30.01,10.0,East,4.6,-,0.00,,Mostly Cloudy,100,2012-12-31 03:51:00
8:51 PM,48.0,41.0,77,30.03,10.0,Calm,Calm,-,N/A,,Scattered Clouds,0,2012-12-31 04:51:00
9:51 PM,48.0,41.0,77,30.06,10.0,ESE,3.5,-,N/A,,Partly Cloudy,110,2012-12-31 05:51:00
10:51 PM,46.9,41.0,80,30.08,10.0,Calm,Calm,-,N/A,,Partly Cloudy,0,2012-12-31 06:51:00
11:51 PM,46.0,39.9,79,30.09,10.0,East,3.5,-,N/A,,Clear,90,2012-12-31 07:51:00